Weather in Byblos

Lebanon     34°07′43″N   35°39′34″E
temp.,
°C
wind,
m/s
gust,
m/s
humid.,
%
clouds,
%
prec.,
mm/h
press.,
hPa
HPBL,
m
5 march, fri
fri523:00+8s23670 0.0 101924
02:00+9ssw44720 0.0 101957
05:00+8sse44560 0.0 101941
08:00+12ssw69670 0.0 1021845
11:00+15sw89631 0.1 10221111
14:00+14sw89711 0.1 1021841
17:00+12sw57780 0.0 1022509
20:00+10ssw36780 0.0 1024138
6 march, sat
sat623:00+10sw33770 0.0 102548
02:00+8ssw12781 0.0 102422
05:00+7ssw227912 0.0 102422
08:00+12sw12657 0.0 1025168
11:00+15w32640 0.0 1024468
14:00+15wnw21680 0.0 1022449
17:00+13wnw21740 0.0 1021277
20:00+9nw11839 0.0 102222
7 march, sun
sun723:00+9wsw128059 0.0 102122
02:00+8w118380 0.0 101922
05:00+7se118360 0.0 101922
08:00+12wsw116331 0.0 1019181
11:00+15w33600 0.0 1018523
14:00+14w43660 0.0 1016561
17:00+12wsw33750 0.0 1015407
20:00+10ssw22800 0.0 101722
8 march, mon
mon823:00+9ssw23782 0.0 101728
02:00+9ssw338010 0.0 101542
05:00+9ssw44810 0.0 101573
08:00+13sw68700 0.0 1016655
11:00+15sw89670 0.0 1016972
14:00+15sw78630 0.0 1014940
17:00+13sw69750 0.0 1014549
20:00+11s58760 0.0 1016209
9 march, tue
tue923:00+10ssw45610 0.0 101683
02:00+10s466916 0.0 101690
05:00+9s34570 0.0 101644
08:00+13sw566715 0.0 1018404
11:00+16sw556633 0.0 1017503
14:00+16wsw446650 0.0 1015504
17:00+14wsw2273100 0.0 1015123
20:00+11n017895 0.0 101623